TimeEET,TemperatureF,Dew PointF,Humidity,Sea Level PressureIn,VisibilityMPH,Wind Direction,Wind SpeedMPH,Gust SpeedMPH,PrecipitationIn,Events,Conditions,WindDirDegrees,DateUTC
12:00 AM,66.2,35.6,32,29.89,-9999.0,WNW,3.5,-,N/A,,Clear,300,2013-01-27 22:00:00
1:00 AM,64.4,41.0,42,29.92,6.2,WSW,3.5,-,N/A,,Mostly Cloudy,250,2013-01-27 23:00:00
2:00 AM,63,51,56,29.91,5,NNW,2.3,,,Rain,Light Drizzle,340,2013-01-28 00:00:00
2:00 AM,62.6,51.8,68,29.89,5.0,NNW,3.5,-,N/A,Rain,Rain,340,2013-01-28 00:00:00
3:00 AM,60.8,53.6,77,29.86,5.0,SSE,2.3,-,N/A,Rain,Rain,160,2013-01-28 01:00:00
4:00 AM,62.6,57.2,82,29.89,6.2,NNW,9.2,-,N/A,,Mostly Cloudy,340,2013-01-28 02:00:00
5:00 AM,59.0,55.4,88,29.89,6.2,NNW,5.8,-,N/A,,Mostly Cloudy,330,2013-01-28 03:00:00
6:00 AM,59.0,55.4,88,29.92,6.2,NNW,9.2,-,N/A,,Mostly Cloudy,340,2013-01-28 04:00:00
7:00 AM,59.0,53.6,82,29.89,6.2,North,4.6,-,N/A,,Mostly Cloudy,360,2013-01-28 05:00:00
8:00 AM,60,56,82,29.92,6,NNW,6.9,,,,Partly Cloudy,330,2013-01-28 06:00:00
8:00 AM,60.8,55.4,82,29.92,6.2,NNW,6.9,-,N/A,,Mostly Cloudy,330,2013-01-28 06:00:00
9:00 AM,59.0,55.4,88,29.92,5.0,West,4.6,-,N/A,Rain,Rain,280,2013-01-28 07:00:00
10:00 AM,57.2,53.6,88,29.89,6.2,SSW,4.6,-,N/A,,Mostly Cloudy,210,2013-01-28 08:00:00
11:00 AM,59.0,55.4,88,29.89,6.2,NNW,5.8,-,N/A,,Mostly Cloudy,330,2013-01-28 09:00:00
12:00 PM,62.6,55.4,77,29.89,6.2,NW,4.6,-,N/A,,Mostly Cloudy,310,2013-01-28 10:00:00
1:00 PM,62.6,51.8,68,29.83,6.2,WNW,3.5,-,N/A,,Mostly Cloudy,300,2013-01-28 11:00:00
2:00 PM,67,47,38,29.83,6,NNW,8.1,,,,Partly Cloudy,340,2013-01-28 12:00:00
2:00 PM,68.0,48.2,49,29.83,6.2,NNW,8.1,-,N/A,,Scattered Clouds,340,2013-01-28 12:00:00
3:00 PM,73.4,46.4,38,29.80,6.2,North,3.5,-,N/A,,Partly Cloudy,10,2013-01-28 13:00:00
4:00 PM,73.4,44.6,36,29.80,6.2,ENE,4.6,-,N/A,,Partly Cloudy,60,2013-01-28 14:00:00
5:00 PM,69.8,44.6,40,29.83,6.2,NE,3.5,-,N/A,,Partly Cloudy,40,2013-01-28 15:00:00
6:00 PM,62.6,41.0,45,29.86,-9999.0,Calm,Calm,-,N/A,,Clear,0,2013-01-28 16:00:00
7:00 PM,64.4,46.4,52,29.89,-9999.0,North,6.9,-,N/A,,Clear,350,2013-01-28 17:00:00
8:00 PM,65,44,35,29.93,6,North,20.7,,,,Partly Cloudy,350,2013-01-28 18:00:00
8:00 PM,64.4,44.6,49,29.92,-9999.0,North,20.7,-,N/A,,Clear,350,2013-01-28 18:00:00
9:00 PM,60.8,50.0,68,29.95,-9999.0,North,23.0,-,N/A,,Clear,350,2013-01-28 19:00:00
10:00 PM,59.0,46.4,63,29.98,-9999.0,North,23.0,-,N/A,,Clear,350,2013-01-28 20:00:00
11:00 PM,57.2,41.0,55,29.98,-9999.0,NNW,15.0,-,N/A,,Clear,340,2013-01-28 21:00:00